Regional Weather Roundup
Issued by NWS

Home | Current Version | Previous Version | Graphics & Text | Print | Product List | Glossary On
Versions: 1 2 3 4 5 6 7 8 9 10 11 12 13 14 15 16 17 18 19 20 21 22 23 24 25 26 27 28 29 30 31 32 33 34 35 36 37 38 39 40 41 42 43 44 45 46 47 48 49 50
000
ASUS43 KLOT 300208
RWRIL

ILLINOIS REGIONAL WEATHER ROUNDUP
NATIONAL WEATHER SERVICE CHICAGO/ROMEOVILLE IL
900 PM CDT FRI APR 29 2016

NOTE: "FAIR" INDICATES FEW OR NO CLOUDS BELOW 12,000 FEET WITH NO
SIGNIFICANT WEATHER AND/OR OBSTRUCTIONS TO VISIBILITY.

* THESE STATIONS ARE NOT UNDER NWS QUALITY CONTROL. THEY ALSO MAY NOT
  REPORT WEATHER SUCH AS PRECIPITATION OR FOG.

ILZ001-002-007-009-015-016-024-300300-
NORTHWEST ILLINOIS

CITY           SKY/WX    TMP DP  RH WIND       PRES   REMARKS
MOLINE         CLOUDY    50  41  71 E13       30.08S
STERLING*      CLOUDY    46  43  87 E9        30.11S
SAVANNA*       CLOUDY    47  41  77 NE8       30.11S
$$

ILZ003-004-008-010-011-017-018-300300-
NORTH CENTRAL ILLINOIS

CITY           SKY/WX    TMP DP  RH WIND       PRES   REMARKS
ROCKFORD       CLOUDY    48  40  73 E3        30.13F
FREEPORT*      CLOUDY    45  41  86 CALM      30.13S
ROCHELLE*      CLOUDY    46  41  81 E6        30.12S
DE KALB*       CLOUDY    47  41  80 NE5       30.12F
$$

ILZ005-006-012>014-019>023-300300-
NORTHEAST ILLINOIS

CITY           SKY/WX    TMP DP  RH WIND       PRES   REMARKS
CHICAGO-OHARE  CLOUDY    43  38  82 NE8       30.13F
CHICAGO-MIDWAY CLOUDY    45  37  73 NE8       30.13F
AURORA         CLOUDY    48  40  73 NE12      30.12F
LANSING*       CLOUDY    43  38  85 NE8       30.14F
JOLIET*        CLOUDY    46  41  81 NE10      30.13S
WAUKEGAN       CLOUDY    42  37  82 NE7       30.14S
DUPAGE AIRPORT CLOUDY    45  37  73 E12       30.11F
KANKAKEE*      CLOUDY    46  40  81 NE8       30.13S
WHEELING       CLOUDY    43  37  79 NE7       30.15F
MORRIS*        CLOUDY    47  41  79 E9        30.11R
ROMEOVILLE*    CLOUDY    44  39  80 E10       30.12S
NORTHERLY ISL    N/A     42  38  85 MISG        N/A
NORTHERLY ISL    N/A     42  38  85 MISG        N/A
$$

LMZ740>746-300300-
SOUTHERN LAKE MICHIGAN

STATION/POSITION SKY/WX   TEMP    WIND        PRES    VSBY  WAVE
                          AIR SEA DIR/SP/G                  HT/PER
                          (F)     (DEG/KT/KT) (MB)    (MI)  (FT/S)
SOUTHERN BUOY              41 40   40/  8/ 10 1021.2R         1/ 3
HARRISON CRIB              42      10/  8/  9   N/A
BURNHAM HARBOR             42      10/  8/ 10   N/A
CALUMET HARBOR             42                 1020.2R
BURNS HARBOR               42      30/  7/ 10 1021.3R
MICHIGAN CITY              42     360/  8/  9   N/A
ST. JOSEPH                 45 47                N/A           2/ 3
$$

ILZ025>027-034>036-040-047-049-050-058-095>099-300300-
WEST-CENTRAL ILLINOIS

CITY           SKY/WX    TMP DP  RH WIND       PRES   REMARKS
QUINCY         CLOUDY    53  47  79 NE12      30.00F
GALESBURG*     CLOUDY    48  43  82 NE14      30.06R
MACOMB*        CLOUDY    50  46  88 NE10      30.07R
JACKSONVILLE*  CLOUDY    55  48  79 NE14      30.01F
PITTSFIELD*    CLOUDY    55  49  80 NE8       30.01S
$$

ILZ028>032-037-038-041>044-048-051>054-059>061-300300-
CENTRAL ILLINOIS

CITY           SKY/WX    TMP DP  RH WIND       PRES   REMARKS
PONTIAC        CLOUDY    51  47  87 NE9       30.10F
BLOOMINGTON    CLOUDY    50  48  93 NE15      30.08F
DECATUR        CLOUDY    56  47  71 NE14      30.04F
PEORIA         MOCLDY    50  43  77 NE10      30.05F
LACON*         CLOUDY    48  43  82 NE9       30.08F
LINCOLN*       MOCLDY    54  49  83 NE13      30.03F
SPRINGFIELD    MOCLDY    57  49  74 NE12      30.03R
TAYLORVILLE    CLOUDY    57  50  77 NE10G17   30.02S
$$

ILZ033-039-045-046-055>057-062-063-300300-
EAST-CENTRAL ILLINOIS

CITY           SKY/WX    TMP DP  RH WIND       PRES   REMARKS
CHAMPAIGN      CLOUDY    55  47  74 NE14      30.05F
RANTOUL*       PTCLDY    54  49  83 NE9       30.08F
MATTOON        CLOUDY    57  49  74 NE12      30.03S
PARIS*         CLOUDY    57  50  79 NE8       30.07S
$$

ILZ079-100>102-300300-
SOUTHWEST ILLINOIS

CITY           SKY/WX    TMP DP  RH WIND       PRES   REMARKS
ALTON          CLOUDY    61  54  77 E8        29.97
BELLEVILLE     CLOUDY    62  56  80 NE7       29.95F
CAHOKIA*       CLOUDY    63  53  70 E9        29.96S
SPARTA*        CLOUDY    62  55  77 E8        29.96S
$$

ILZ064>066-069>071-074>076-080>082-084>086-088>090-092>094-300300-
SOUTH-CENTRAL ILLINOIS

CITY           SKY/WX    TMP DP  RH WIND       PRES   REMARKS
CARBONDALE     LGT RAIN  62  54  74 E7        29.95F
CAIRO*         CLOUDY    61  58  91 NE9       29.92S
EFFINGHAM*     CLOUDY    62  55  78 N5        30.02F
MARION         CLOUDY    64  57  77 E6        29.96F
MT. VERNON     CLOUDY    63  52  67 NE8       29.97F
CENTRALIA*     CLOUDY    62  55  79 NE6       29.96F
SALEM*         CLOUDY    63  54  72 NE6       29.98F
METROPOLIS*    CLOUDY    61  60  97 E3        29.94F
$$

ILZ067-068-072-073-078-083-087-091-300300-
SOUTHEAST ILLINOIS

CITY           SKY/WX    TMP DP  RH WIND       PRES   REMARKS
LAWRENCEVILLE  CLOUDY    62  54  74 NE9       30.02S
FLORA*         CLOUDY    64  55  74 NE8       29.99F
FAIRFIELD*     CLOUDY    62  54  76 NE7       29.97F
HARRISBURG*    CLOUDY    63  57  82 E6        29.96F
ROBINSON*      CLOUDY    59  55  84 NE5       30.05R
CARMI*         CLOUDY    62  56  81 NE6       29.98S
$$

ABBREVIATIONS USED IN REMARKS
   TC - TEMPERATURE IN CELSIUS
  WCI - WIND CHILL INDEX
   HX - HEAT INDEX
  VSB - VISIBILITY
$$





USA.gov is the U.S. government's official web portal to all federal, state and local government web resources and services.